Location: Newark
(44.3248°N, 23.7839°E)
Time: 22:01:37
(UTC+00:00)

PCSat - Pass Details

Date: 13 April 2024
Orbit: 783 x 792 km, 67.1° (Epoch: 20 May)

Event Time Altitude Azimuth Distance (km) Brightness Sun altitude
Exits shadow 20:28:03 - 240° (WSW) 2,428 12.1 -30.0°
Reaches altitude 10° 20:28:17 10° 241° (WSW) 2,344 12.0 -30.1°
Maximum altitude 20:33:19 39° 310° (NW) 1,163 10.8 -30.6°
Drops below altitude 10° 20:38:24 10° 19° (NNE) 2,363 12.4 -31.0°
Sets 20:40:59 0° 27° (NNE) 3,297 13.2 -31.3°
